• In Moldova, Republic
  • List of Countries
  • For 7 days
  • Water Temperature
  • Satellite Maps
  • Weather Map
  • Weather Widgets
  • user-avatar
    Login

    Hourly Weather Lezhe

    Today, 28 March, Tuesday

    Time Temperature Precipitation Wind Pressure Humidity
    00:00 +5°C° 0 mm 3 mps 741 mmHg 75%
    01:00 +4°C° 0 mm 3 mps 741 mmHg 75%
    02:00 +4°C° 0 mm 3 mps 741 mmHg 75%
    03:00 +4°C° 0 mm 3 mps 741 mmHg 75%
    04:00 +4°C° 0 mm 3 mps 741 mmHg 75%
    05:00 +5°C° 0 mm 3 mps 741 mmHg 73%
    06:00 +5°C° 0 mm 3 mps 741 mmHg 71%
    07:00 +6°C° 0 mm 4 mps 741 mmHg 67%
    08:00 +9°C° 0 mm 3 mps 741 mmHg 61%
    09:00 +11°C° 0 mm 3 mps 741 mmHg 56%
    10:00 +13°C° 0 mm 3 mps 741 mmHg 50%
    11:00 +14°C° 0 mm 3 mps 741 mmHg 48%
    12:00 +17°C° 0 mm 3 mps 741 mmHg 46%
    13:00 +18°C° 0 mm 2 mps 740 mmHg 44%
    14:00 +17°C° 0 mm 3 mps 740 mmHg 45%
    15:00 +17°C° 0 mm 3 mps 740 mmHg 46%
    16:00 +17°C° 0 mm 3 mps 740 mmHg 48%
    17:00 +14°C° 0 mm 3 mps 740 mmHg 54%
    18:00 +11°C° 0 mm 3 mps 740 mmHg 61%
    19:00 +9°C° 0 mm 3 mps 740 mmHg 67%
    20:00 +9°C° 0 mm 3 mps 740 mmHg 67%
    21:00 +8°C° 0 mm 3 mps 741 mmHg 66%
    22:00 +8°C° 0 mm 3 mps 741 mmHg 66%
    23:00 +8°C° 0 mm 3 mps 741 mmHg 67%

    Tomorrow, 29 March, Wednesday

    Time Temperature Precipitation Wind Pressure Humidity
    00:00 +8°C° 0 mm 3 mps 741 mmHg 68%
    01:00 +7°C° 0 mm 3 mps 741 mmHg 69%
    02:00 +7°C° 0 mm 3 mps 741 mmHg 70%
    03:00 +7°C° 0 mm 2 mps 741 mmHg 71%
    04:00 +7°C° 0 mm 2 mps 741 mmHg 72%
    05:00 +8°C° 0 mm 2 mps 741 mmHg 71%
    06:00 +9°C° 0 mm 2 mps 741 mmHg 69%
    07:00 +9°C° 0 mm 2 mps 741 mmHg 68%
    08:00 +13°C° 0 mm 2 mps 741 mmHg 60%
    09:00 +15°C° 0 mm 2 mps 741 mmHg 53%
    10:00 +18°C° 0 mm 2 mps 741 mmHg 45%
    11:00 +18°C° 0 mm 2 mps 741 mmHg 43%
    12:00 +19°C° 0 mm 2 mps 740 mmHg 40%
    13:00 +20°C° 0 mm 3 mps 740 mmHg 38%
    14:00 +20°C° 0 mm 3 mps 740 mmHg 40%
    15:00 +19°C° 0 mm 3 mps 739 mmHg 42%
    16:00 +19°C° 0 mm 4 mps 739 mmHg 45%
    17:00 +17°C° 0 mm 3 mps 739 mmHg 52%
    18:00 +14°C° 0 mm 3 mps 739 mmHg 59%
    19:00 +11°C° 0 mm 3 mps 739 mmHg 67%
    20:00 +11°C° 0 mm 3 mps 740 mmHg 67%
    21:00 +11°C° 0 mm 3 mps 740 mmHg 68%
    22:00 +10°C° 0 mm 3 mps 740 mmHg 69%
    23:00 +10°C° 0 mm 3 mps 741 mmHg 70%

    Day after tomorrow, 30 March, Thursday

    Time Temperature Precipitation Wind Pressure Humidity
    00:00 +10°C° 0 mm 3 mps 741 mmHg 72%
    01:00 +9°C° 0 mm 3 mps 741 mmHg 74%
    02:00 +9°C° 0 mm 3 mps 741 mmHg 75%
    03:00 +9°C° 0 mm 3 mps 741 mmHg 77%
    04:00 +9°C° 0 mm 3 mps 741 mmHg 78%
    05:00 +10°C° 0 mm 3 mps 741 mmHg 76%
    06:00 +10°C° 0 mm 3 mps 741 mmHg 75%
    07:00 +11°C° 0 mm 3 mps 741 mmHg 73%
    08:00 +13°C° 0 mm 3 mps 741 mmHg 66%
    09:00 +16°C° 0 mm 3 mps 741 mmHg 59%
    10:00 +18°C° 0 mm 3 mps 741 mmHg 52%
    11:00 +19°C° 0 mm 3 mps 741 mmHg 50%
    12:00 +20°C° 0 mm 4 mps 741 mmHg 48%
    13:00 +20°C° 0 mm 4 mps 741 mmHg 46%
    14:00 +20°C° 0 mm 4 mps 740 mmHg 47%
    15:00 +20°C° 0 mm 4 mps 740 mmHg 48%
    16:00 +19°C° 0 mm 4 mps 740 mmHg 50%
    17:00 +17°C° 0 mm 4 mps 740 mmHg 57%
    18:00 +15°C° 0 mm 4 mps 741 mmHg 65%
    19:00 +13°C° 0 mm 3 mps 741 mmHg 73%
    20:00 +12°C° 0 mm 3 mps 741 mmHg 75%
    21:00 +12°C° 0 mm 4 mps 742 mmHg 77%
    22:00 +11°C° 0 mm 4 mps 742 mmHg 79%
    23:00 +11°C° 0 mm 4 mps 742 mmHg 80%

    31 March, Friday

    Time Temperature Precipitation Wind Pressure Humidity
    00:00 +11°C° 0 mm 4 mps 742 mmHg 82%
    01:00 +10°C° 0 mm 4 mps 742 mmHg 83%
    02:00 +10°C° 0 mm 4 mps 742 mmHg 84%
    03:00 +10°C° 0 mm 3 mps 742 mmHg 84%
    04:00 +9°C° 0 mm 3 mps 742 mmHg 85%
    05:00 +10°C° 0 mm 3 mps 742 mmHg 82%
    06:00 +11°C° 0 mm 3 mps 742 mmHg 79%
    07:00 +11°C° 0 mm 3 mps 742 mmHg 76%
    08:00 +13°C° 0 mm 3 mps 742 mmHg 67%
    09:00 +16°C° 0 mm 3 mps 742 mmHg 58%
    10:00 +18°C° 0 mm 3 mps 742 mmHg 49%
    11:00 +19°C° 0 mm 2 mps 742 mmHg 47%
    12:00 +20°C° 0 mm 2 mps 742 mmHg 44%
    13:00 +21°C° 0 mm 2 mps 741 mmHg 41%
    14:00 +21°C° 0 mm 2 mps 741 mmHg 43%
    15:00 +20°C° 0 mm 3 mps 741 mmHg 45%
    16:00 +20°C° 0 mm 3 mps 740 mmHg 47%
    17:00 +17°C° 0 mm 3 mps 741 mmHg 54%
    18:00 +14°C° 0 mm 3 mps 741 mmHg 62%
    19:00 +13°C° 0 mm 2 mps 741 mmHg 69%
    20:00 +13°C° 0 mm 2 mps 741 mmHg 71%
    21:00 +13°C° 0 mm 2 mps 741 mmHg 72%
    22:00 +12°C° 0 mm 2 mps 741 mmHg 73%
    23:00 +12°C° 0 mm 2 mps 741 mmHg 75%

    1 April, Saturday

    Time Temperature Precipitation Wind Pressure Humidity
    00:00 +10°C° 0 mm 2 mps 741 mmHg 76%
    01:00 +10°C° 0 mm 2 mps 741 mmHg 78%
    02:00 +10°C° 0 mm 2 mps 741 mmHg 78%
    03:00 +9°C° 0 mm 2 mps 741 mmHg 79%
    04:00 +9°C° 0 mm 2 mps 740 mmHg 79%
    05:00 +10°C° 0 mm 2 mps 741 mmHg 76%
    06:00 +12°C° 0 mm 2 mps 741 mmHg 74%
    07:00 +13°C° 0 mm 2 mps 741 mmHg 71%
    08:00 +15°C° 0 mm 2 mps 741 mmHg 63%
    09:00 +17°C° 0 mm 2 mps 741 mmHg 55%
    10:00 +20°C° 0 mm 1 mps 740 mmHg 48%
    11:00 +20°C° 0 mm 2 mps 740 mmHg 47%
    12:00 +20°C° 0 mm 2 mps 740 mmHg 47%
    13:00 +20°C° 0 mm 2 mps 739 mmHg 46%
    14:00 +19°C° 0 mm 2 mps 739 mmHg 50%
    15:00 +19°C° 0 mm 2 mps 739 mmHg 53%
    16:00 +18°C° 0 mm 2 mps 738 mmHg 57%
    17:00 +16°C° 0 mm 1 mps 738 mmHg 66%
    18:00 +14°C° 0 mm 1 mps 739 mmHg 75%
    19:00 +12°C° 0 mm 1 mps 739 mmHg 85%
    20:00 +12°C° 0 mm 1 mps 739 mmHg 86%
    21:00 +11°C° 0 mm 1 mps 739 mmHg 87%
    22:00 +11°C° 0 mm 1 mps 740 mmHg 88%
    23:00 +10°C° 0 mm 1 mps 739 mmHg 88%

    2 April, Sunday

    Time Temperature Precipitation Wind Pressure Humidity
    00:00 +10°C° 0 mm 1 mps 739 mmHg 87%
    01:00 +10°C° 0 mm 1 mps 739 mmHg 87%
    02:00 +10°C° 0 mm 1 mps 739 mmHg 86%
    03:00 +9°C° 0 mm 1 mps 739 mmHg 85%
    04:00 +9°C° 0 mm 1 mps 739 mmHg 84%
    05:00 +9°C° 0 mm 2 mps 739 mmHg 79%
    06:00 +10°C° 0 mm 2 mps 739 mmHg 73%
    07:00 +13°C° 0 mm 2 mps 739 mmHg 68%
    08:00 +15°C° 0 mm 1 mps 739 mmHg 59%
    09:00 +18°C° 0 mm 1 mps 739 mmHg 50%
    10:00 +20°C° 0 mm 1 mps 739 mmHg 41%
    11:00 +19°C° 0 mm 2 mps 739 mmHg 39%
    12:00 +20°C° 0 mm 2 mps 739 mmHg 37%
    13:00 +21°C° 0 mm 2 mps 738 mmHg 34%
    14:00 +20°C° 0 mm 2 mps 738 mmHg 39%
    15:00 +19°C° 0 mm 2 mps 738 mmHg 43%
    16:00 +18°C° 0 mm 2 mps 737 mmHg 47%
    17:00 +16°C° 0 mm 2 mps 737 mmHg 58%
    18:00 +14°C° 0 mm 1 mps 737 mmHg 68%
    19:00 +11°C° 0 mm 1 mps 737 mmHg 79%
    20:00 +11°C° 0 mm 1 mps 737 mmHg 78%
    21:00 +11°C° 0 mm 1 mps 737 mmHg 76%
    22:00 +11°C° 0 mm 1 mps 738 mmHg 75%
    23:00 +10°C° 0 mm 1 mps 737 mmHg 71%
    Show more